Regional Weather Roundup
Issued by NWS

Home | Current Version | Previous Version | Graphics & Text | Print | Product List | Glossary On
Versions: 1 2 3 4 5 6 7 8 9 10 11 12 13 14 15 16 17 18 19 20 21 22 23 24 25 26 27 28 29 30 31 32 33 34 35 36 37 38 39 40 41 42 43 44 45 46 47 48 49 50
000
ASUS43 KLMK 271610
RWRKY
KENTUCKY REGIONAL WEATHER ROUNDUP
NATIONAL WEATHER SERVICE LOUISVILLE KY
1200 PM EDT WED AUG 27 2014

NOTE "FAIR" INDICATES FEW OR NO CLOUDS BELOW 12,000 FEET
WITH NO SIGNIFICANT WEATHER AND/OR OBSTRUCTIONS TO VISIBILITY.

KYZ001>023-026-027-061>063-070>075-271700-
WESTERN AND SOUTH CENTRAL KENTUCKY

CITY           SKY/WX    TMP DP  RH WIND       PRES   REMARKS
PADUCAH        SUNNY     91  75  59 N5        30.11R HX 101
HENDERSON      SUNNY     88  75  66 CALM      30.11  HX  97
OWENSBORO      SUNNY     88  74  63 N6        30.12R HX  96
HOPKINSVILLE   MOSUNNY   85  74  69 NW6       30.12R HX  92
BOWLING GREEN  PTSUNNY   85  72  65 E6        30.13R HX  91
GLASGOW        MOSUNNY   84  66  53 CALM      30.13S
$$

KYZ024-025-028>034-038-045-046-053-271700-
NORTH CENTRAL KENTUCKY

CITY           SKY/WX    TMP DP  RH WIND       PRES   REMARKS
LOUISVILLE/SDF MOSUNNY   89  72  56 VRB3      30.11R HX  96
LOUISVILLE/LOU SUNNY     86  71  60 VRB5      30.11S HX  91
FORT KNOX      SUNNY     85  72  65 NW7       30.11S HX  91
$$

KYZ035>037-039>044-047>052-055>060-089>105-271700-
NORTHEAST KENTUCKY

CITY           SKY/WX    TMP DP  RH WIND       PRES   REMARKS
LEXINGTON      SUNNY     85  68  56 VRB3      30.14S
COVINGTON      PTSUNNY   86  68  54 NW6       30.12S
FRANKFORT      SUNNY     85  70  60 VRB3      30.12S
$$

KYZ054-064>069-076>088-106>120-271700-
SOUTHEAST KENTUCKY

CITY           SKY/WX    TMP DP  RH WIND       PRES   REMARKS
JACKSON        SUNNY     79  63  57 VRB3      30.16S
LONDON         SUNNY     83  65  54 NE7       30.15F
SOMERSET       SUNNY     81  64  57 NE3       30.15S
MIDDLESBORO    SUNNY     77  66  69 CALM      30.15F
MONTICELLO     MOSUNNY   83  68  60 NE3       30.16S
$$



USA.gov is the U.S. government's official web portal to all federal, state and local government web resources and services.